Terug naar catalogus

STARLINK-35964

ActiefCommunicatieVLEO
NORAD 66796·PAYLOAD·🇺🇸 United States

Gelanceerd Dec 1, 2025 vanaf Cape Canaveral Space Force Station

Loading…

Volgende Passages (komende 24 uur)

TLE

VersSource: CelesTrak SupGP

Epoch: Sep 15, 2026, 04:01 UTC

1 66796C 25278F   26258.16784722  .00014108  00000+0  51094-3 0  2581
2 66796  42.9995 109.3985 0001479 273.3977 157.6704 15.27575759    12

Volg STARLINK-35964 in realtime met AllMySat

Download on the App Store